Weather History for Westhampton Beach, NY

Change the Weather History Date:

Tuesday, October 1, 2013

  Actual Average Record
Temperature  
Mean Temperature 60 °F -  
Max Temperature 79 °F 66 °F 79 °F (1998)
Min Temperature 41 °F 44 °F 36 °F (1999)
Degree Days  
Heating Degree Days 6    
Growing Degree Days 10 (Base 50)    
Moisture  
Dew Point 46 °F    
Average Humidity 84    
Maximum Humidity 100    
Minimum Humidity 40    
Precipitation  
Precipitation 0.00 in - - ()
Sea Level Pressure  
Sea Level Pressure 29.98 in    
Wind  
Wind Speed 1 mph (NW)    
Max Wind Speed 10 mph    
Max Gust Speed 20 mph    
Visibility 5 miles    
Events Fog    
Averages and records for this station are not official NWS values.
T = Trace of Precipitation, MM = Missing Value Source: NWS Daily Summary

Daily Weather History Graph

Daily Weather History Graph

Search for Another Location

Airport:

Trip Planner

Search our weather history database for the weather conditions in past years. The results will help you decide how hot, cold, wet, or windy it might be!

Date:

Astronomy

Oct. 01, 2013 Rise Set
Actual Time 6:47 AM EDT 6:32 PM EDT
Civil Twilight 6:19 AM EDT 6:59 PM EDT
Nautical Twilight 5:48 AM EDT 7:31 PM EDT
Astronomical Twilight 5:15 AM EDT 8:03 PM EDT
Moon 3:17 AM EDT (10/1) 4:35 PM EDT (10/1)
Length of Visible Light 12h 39m
Length of Day
11h 44m
Waning Crescent, 12% of the Moon is Illuminated
Oct 1
Waning Crescent
Oct 4
New
Oct 11
First Quarter
Oct 18
Full
Oct 26
Last Quarter

Hourly Weather History & Observations

Time (EDT) Temp. Dew Point Humidity Pressure Visibility Wind Dir Wind Speed Gust Speed Precip Events Conditions
12:03 AM 46.4 °F 44.6 °F 93% 30.00 in 0.8 mi Calm Calm - N/A   Mist
12:25 AM 46.4 °F 42.8 °F 87% 30.00 in 1.0 mi Calm Calm - N/A   Mist
12:34 AM 46.4 °F 44.6 °F 93% 30.00 in 1.0 mi Calm Calm - N/A   Mist
12:53 AM 45.0 °F 43.0 °F 93% 30.00 in 0.8 mi Calm Calm - N/A   Mist
1:08 AM 44.6 °F 42.8 °F 93% 30.00 in 0.5 mi Calm Calm - N/A Fog Fog
1:16 AM 44.6 °F 42.8 °F 93% 30.00 in 0.2 mi Calm Calm - N/A Fog Fog
1:33 AM 44.6 °F 42.8 °F 93% 30.00 in 0.2 mi Calm Calm - N/A Fog Fog
1:53 AM 44.1 °F 42.1 °F 93% 30.00 in 0.5 mi Calm Calm - N/A Fog Fog
2:02 AM 44.6 °F 42.8 °F 93% 30.00 in 0.2 mi Calm Calm - N/A Fog Fog
2:37 AM 44.6 °F 42.8 °F 93% 29.99 in 1.2 mi Calm Calm - N/A   Mostly Cloudy
2:39 AM 44.6 °F 42.8 °F 93% 29.99 in 4.0 mi Calm Calm - N/A   Mostly Cloudy
2:50 AM 44.6 °F 42.8 °F 93% 29.99 in 9.0 mi Calm Calm - N/A   Partly Cloudy
2:53 AM 44.1 °F 43.0 °F 96% 29.99 in 10.0 mi Calm Calm - N/A   Partly Cloudy
3:10 AM 42.8 °F 42.8 °F 100% 29.98 in 1.8 mi Calm Calm - N/A   Scattered Clouds
3:15 AM 42.8 °F 42.8 °F 100% 29.98 in 2.5 mi Calm Calm - N/A   Mostly Cloudy
3:20 AM 42.8 °F 42.8 °F 100% 29.99 in 5.0 mi Calm Calm - N/A   Scattered Clouds
3:53 AM 44.1 °F 42.1 °F 93% 29.99 in 10.0 mi Calm Calm - N/A   Clear
4:35 AM 42.8 °F 41.0 °F 93% 29.98 in 2.5 mi Calm Calm - N/A   Partly Cloudy
4:44 AM 42.8 °F 41.0 °F 93% 29.99 in 6.0 mi Calm Calm - N/A   Mostly Cloudy
4:53 AM 43.0 °F 41.0 °F 93% 29.99 in 10.0 mi Calm Calm - N/A   Mostly Cloudy
5:22 AM 42.8 °F 39.2 °F 87% 29.99 in 1.5 mi Calm Calm - N/A   Mostly Cloudy
5:29 AM 42.8 °F 39.2 °F 87% 29.98 in 0.2 mi Calm Calm - N/A Fog Fog
5:43 AM 42.8 °F 39.2 °F 87% 29.99 in 0.5 mi Calm Calm - N/A Fog Fog
5:53 AM 42.1 °F 39.9 °F 92% 29.99 in 0.5 mi Calm Calm - N/A Fog Fog
5:55 AM 42.8 °F 39.2 °F 87% 29.99 in 0.2 mi Calm Calm - N/A Fog Fog
6:43 AM 41.0 °F 39.2 °F 93% 29.99 in 1.0 mi Calm Calm - N/A   Mist
6:47 AM 41.0 °F 39.2 °F 93% 29.99 in 4.0 mi Calm Calm - N/A   Mostly Cloudy
6:53 AM 41.0 °F 39.0 °F 93% 30.00 in 6.0 mi Calm Calm - N/A   Mostly Cloudy
7:19 AM 42.8 °F 41.0 °F 93% 30.00 in 8.0 mi Calm Calm - N/A   Scattered Clouds
7:53 AM 48.0 °F 46.9 °F 96% 30.01 in 8.0 mi Calm Calm - N/A   Partly Cloudy
8:53 AM 64.0 °F 55.9 °F 75% 30.00 in 10.0 mi NW 5.8 mph - N/A   Clear
9:53 AM 68.0 °F 55.9 °F 65% 30.00 in 10.0 mi NNW 9.2 mph - N/A   Clear
10:53 AM 71.1 °F 55.0 °F 57% 30.00 in 10.0 mi North 9.2 mph - N/A   Clear
11:53 AM 73.9 °F 53.1 °F 48% 29.98 in 10.0 mi North 6.9 mph - N/A   Clear
12:53 PM 75.9 °F 50.0 °F 40% 29.96 in 10.0 mi WNW 5.8 mph - N/A   Clear
1:53 PM 77.0 °F 51.1 °F 40% 29.94 in 10.0 mi NW 9.2 mph - N/A   Clear
2:53 PM 78.1 °F 52.0 °F 40% 29.93 in 10.0 mi WNW 8.1 mph - N/A   Clear
3:53 PM 78.1 °F 53.1 °F 42% 29.91 in 10.0 mi West 10.4 mph 19.6 mph N/A   Clear
4:53 PM 72.0 °F 57.9 °F 61% 29.91 in 10.0 mi SSW 8.1 mph - N/A   Clear
5:53 PM 71.1 °F 59.0 °F 66% 29.91 in 10.0 mi Calm Calm - N/A   Clear
6:53 PM 64.9 °F 57.9 °F 78% 29.92 in 10.0 mi Calm Calm - N/A   Clear
7:53 PM 57.9 °F 54.0 °F 87% 29.94 in 7.0 mi Calm Calm - N/A   Clear
8:53 PM 57.0 °F 55.0 °F 93% 29.95 in 3.0 mi Calm Calm - N/A   Clear
9:53 PM 55.0 °F 52.0 °F 89% 29.95 in 10.0 mi Calm Calm - N/A   Clear
10:53 PM 53.1 °F 51.1 °F 93% 29.95 in 8.0 mi Calm Calm - N/A   Clear
11:53 PM 52.0 °F 48.9 °F 89% 29.95 in 7.0 mi Calm Calm - N/A   Clear